Torna al catalogo

USA 169

AttivoMilitareGEO
NORAD 27711·PAYLOAD·🇺🇸 United States

Lanciato Apr 8, 2003 da Cape Canaveral Space Force Station

Loading…

TLE

AggiornatoSource: Space-Track

Epoca: Sep 14, 2026, 15:19 UTC

1 27711U 03012A   26257.63825708 -.00000202  00000-0  00000-0 0  9990
2 27711  12.4706  28.2381 0096847  12.2102 335.1812  1.00271776 33848

Traccia USA 169 in tempo reale con AllMySat

Download on the App Store